APSTAR-9

Last updated on Mon Jun 22 2026 00:03:05 GMT+0000 (Coordinated Universal Time)

1 40982U 15059A 26172.51086578 -.00000267 00000+0 00000+0 0 9995 2 40982 0.0449 61.2354 0002393 121.0691 53.3195 1.00270672 39160
UTC large
Height (km)
Speed (km/s)
/
Latitude / Longitude
Inclination (degrees)
Orbital Period (minutes)
Azimuth
Elevation
Range (km)
Doppler Factor

Next 0 passes for location: London (51.5072 / 0.1276)

No passes found over London.
APSTAR-9